Location: Newark
(47.5833°N, 8.1500°E)
Time: 08:37:19
(UTC+00:00)

Tiros 1 despin weight - Pass Details

Date: 03 November 2020
Orbit: 593 x 642 km, 48.2° (Epoch: 28 November)

Event Time Altitude Azimuth Distance (km) Brightness Sun altitude
Rises 22:40:04 0° 251° (WSW) 2,884 - -57.2°
Reaches altitude 10° 22:42:23 10° 250° (WSW) 1,971 - -57.3°
Maximum altitude 22:46:54 79° 166° (SSE) 624 - -57.5°
Drops below altitude 10° 22:51:23 10° 79° (E) 1,946 - -57.6°
Sets 22:53:39 0° 78° (ENE) 2,844 - -57.7°
